User: anonymous   Login
Location: Caltech
(34.1382°N, 118.1253°W)
Time: 08:00:56
(UTC-07:00)
Language:

Cosmos 1833 Rocket - Orbit

View from above orbital plane
View from above orbital plane
View from above satellite
View from above satellite

Ground track
Ground track

The orbit data is extracted from the following two-line orbital elements,

1 17590U 87027B   16178.48913428 -.00000103  00000-0 -27561-4 0  9999
2 17590  71.0011 178.9729 0003521 148.4339 211.6996 14.16725147513742
Epoch (UTC): 26 June 2016 11:44:21
Eccentricity: 0.0003521
inclination: 71.0011°
perigee height: 834 km
apogee height: 839 km
right ascension of ascending node: 178.9729°
argument of perigee: 148.4339°
revolutions per day: 14.16725147
mean anomaly at epoch: 211.6996°
orbit number at epoch: 51374

The dashed part of the orbit path shows where the satellite is in the earth's shadow,  

DLR